Anchorage Merrill, AK

3:25 PM AKST on December 16, 2017 (GMT -0900)
Merrill

Weather History for PAMR - January, 2014

Change the Weather History Date:

Wednesday, January 29, 2014

  Actual Average Record
Temperature  
Mean Temperature 27 °F -  
Max Temperature 33 °F 22 °F 39 °F (2016)
Min Temperature 19 °F 10 °F -15 °F (1999)
Degree Days  
Heating Degree Days 38    
Moisture  
Dew Point 23 °F    
Average Humidity 84    
Maximum Humidity 91    
Minimum Humidity 70    
Precipitation  
Precipitation 0.00 in - - ()
Sea Level Pressure  
Sea Level Pressure 30.11 in    
Wind  
Wind Speed 2 mph (NNE)    
Max Wind Speed 6 mph    
Max Gust Speed -    
Visibility 10 miles    
Events      
Averages and records for this station are not official NWS values.
T = Trace of Precipitation, MM = Missing Value Source: NWS Daily Summary

Daily Weather History Graph

Daily Weather History Graph

Search for Another Location

Airport or City:

Trip Planner

Search our weather history database for the weather conditions in past years. The results will help you decide how hot, cold, wet, or windy it might be!

Date:

Astronomy

Jan. 29, 2014 Rise Set
Actual Time 9:26 AM AKST 4:59 PM AKST
Civil Twilight 8:36 AM AKST 5:49 PM AKST
Nautical Twilight 7:42 AM AKST 6:43 PM AKST
Astronomical Twilight 6:52 AM AKST 7:34 PM AKST
Moon 8:12 AM AKST (1/29) 4:14 PM AKST (1/29)
Length of Visible Light 9h 13m
Length of Day
7h 32m
Waning Crescent, 2% of the Moon is Illuminated
Jan 29
Waning Crescent
Jan 30
New
Feb 6
First Quarter
Feb 14
Full
Feb 22
Last Quarter

Hourly Weather History & Observations

Time (AKST) Temp. Windchill Dew Point Humidity Pressure Visibility Wind Dir Wind Speed Gust Speed Precip Events Conditions
12:53 AM 30.0 °F 26.5 °F 27.0 °F 88% 30.07 in 10.0 mi ESE 3.5 mph - N/A   Scattered Clouds
1:53 AM 30.0 °F - 27.0 °F 88% 30.08 in 10.0 mi Calm Calm - N/A   Scattered Clouds
3:53 AM 28.0 °F 24.2 °F 24.1 °F 85% 30.07 in 10.0 mi NNW 3.5 mph - N/A   Partly Cloudy
4:53 AM 27.0 °F - 23.0 °F 85% 30.07 in 10.0 mi Calm Calm - N/A   Partly Cloudy
5:53 AM 27.0 °F 20.5 °F 24.1 °F 89% 30.08 in 10.0 mi SW 5.8 mph - N/A   Partly Cloudy
6:53 AM 26.1 °F - 23.0 °F 88% 30.08 in 10.0 mi Calm Calm - N/A   Clear
7:41 AM 26.6 °F 22.6 °F 23.0 °F 86% 30.07 in 10.0 mi North 3.5 mph - N/A   Partly Cloudy
7:53 AM 25.0 °F - 21.9 °F 88% 30.08 in 10.0 mi Calm Calm - N/A   Clear
8:53 AM 21.9 °F - 19.0 °F 89% 30.09 in 10.0 mi Calm Calm - N/A   Clear
9:53 AM 25.0 °F - 21.0 °F 85% 30.09 in 10.0 mi Calm Calm - N/A   Partly Cloudy
10:53 AM 28.0 °F - 23.0 °F 81% 30.11 in 10.0 mi Calm Calm - N/A   Clear
11:53 AM 30.0 °F - 24.1 °F 79% 30.11 in 10.0 mi Calm Calm - N/A   Clear
12:53 PM 32.0 °F - 24.1 °F 73% 30.12 in 10.0 mi Calm Calm - N/A   Partly Cloudy
1:53 PM 33.1 °F 30.0 °F 24.1 °F 70% 30.12 in 10.0 mi NNW 3.5 mph - N/A   Partly Cloudy
2:53 PM 32.0 °F - 26.1 °F 79% 30.12 in 10.0 mi Calm Calm - N/A   Partly Cloudy
3:53 PM 30.9 °F - 25.0 °F 79% 30.12 in 10.0 mi Calm Calm - N/A   Partly Cloudy
4:53 PM 30.9 °F - 25.0 °F 79% 30.12 in 10.0 mi Calm Calm - N/A   Partly Cloudy
5:53 PM 28.9 °F - 24.1 °F 82% 30.12 in 10.0 mi Calm Calm - N/A   Clear
6:53 PM 21.9 °F - 19.0 °F 89% 30.14 in 10.0 mi Calm Calm - N/A   Clear
7:53 PM 24.1 °F - 21.9 °F 91% 30.14 in 10.0 mi Calm Calm - N/A   Clear
8:53 PM 24.1 °F - 21.0 °F 88% 30.14 in 10.0 mi Calm Calm - N/A   Clear
9:53 PM 21.9 °F - 19.0 °F 89% 30.14 in 10.0 mi Calm Calm - N/A   Clear
10:53 PM 21.0 °F 16.2 °F 18.0 °F 88% 30.16 in 10.0 mi ENE 3.5 mph - N/A   Clear
11:53 PM 19.9 °F 14.9 °F 17.1 °F 89% 30.16 in 10.0 mi East 3.5 mph - N/A   Partly Cloudy